Location: Gellin
(53.4498°N, 14.3207°E)
Time: 22:12:44
(UTC+00:00)

USA 234 - Pass Details

Date: 03 March 2021
Orbit: 1102 x 1105 km, 123.0° (Epoch: 12 April)

Event Time Altitude Azimuth Distance (km) Brightness Sun altitude
Exits shadow 17:52:35 12° 77° (ENE) 2,807 4.8 -10.9°
Maximum altitude 17:57:26 27° 130° (SE) 1,989 4.2 -11.6°
Drops below altitude 10° 18:02:47 10° 185° (S) 2,955 5.5 -12.4°
Sets 18:05:43 0° 197° (SSW) 3,910 6.3 -12.8°
